Weather History for Rogers City, MI

Change the Weather History Date:

Thursday, August 1, 2013

  Actual Average (KAPN) Record (KAPN)
Temperature  
Mean Temperature 65 °F 67 °F  
Max Temperature 73 °F 79 °F 98 °F (1955)
Min Temperature 57 °F 56 °F 38 °F (1918)
Degree Days  
Heating Degree Days 0 1  
Month to date heating degree days 1  
Since 1 June heating degree days 188  
Since 1 July heating degree days 45  
Cooling Degree Days 0 4  
Month to date cooling degree days 4  
Year to date cooling degree days 189  
Since 1 June cooling degree days 176  
Growing Degree Days 15 (Base 50)    
Moisture  
Dew Point 57 °F    
Average Humidity 80    
Maximum Humidity 97    
Minimum Humidity 53    
Precipitation  
Precipitation 0.00 in 0.10 in 2.61 in (1973)
Month to date precipitation 0.10  
Year to date precipitation 15.65  
Sea Level Pressure  
Sea Level Pressure 29.87 in    
Wind  
Wind Speed 5 mph (WNW)    
Max Wind Speed 15 mph    
Max Gust Speed 22 mph    
Visibility 9 miles    
Events Fog , Rain    
T = Trace of Precipitation, MM = Missing Value Source: NWS Daily Summary

Daily Weather History Graph

Daily Weather History Graph

Search for Another Location

Airport:

Trip Planner

Search our weather history database for the weather conditions in past years. The results will help you decide how hot, cold, wet, or windy it might be!

Date:

Astronomy

Aug. 01, 2013 Rise Set
Actual Time 6:19 AM EDT 9:02 PM EDT
Civil Twilight 5:45 AM EDT 9:36 PM EDT
Nautical Twilight 5:02 AM EDT 10:19 PM EDT
Astronomical Twilight 4:12 AM EDT 11:08 PM EDT
Moon 1:54 AM EDT (8/1) 5:12 PM EDT (8/1)
Length of Visible Light 15h 50m
Length of Day
14h 42m
Waning Crescent, 23% of the Moon is Illuminated
Aug 1
Waning Crescent
Aug 6
New
Aug 14
First Quarter
Aug 20
Full
Aug 28
Last Quarter

Hourly Weather History & Observations

Time (EDT) Temp. Dew Point Humidity Pressure Visibility Wind Dir Wind Speed Gust Speed Precip Events Conditions
12:15 AM 59.4 °F 56.8 °F 91% 29.90 in 10.0 mi South 5.8 mph - N/A Rain Light Rain
12:35 AM 59.2 °F 56.8 °F 92% 29.91 in 10.0 mi SSW 3.5 mph - N/A   Overcast
12:54 AM 59.2 °F 56.8 °F 92% 29.90 in 10.0 mi Calm Calm - N/A   Mostly Cloudy
1:15 AM 59.4 °F 57.2 °F 93% 29.90 in 10.0 mi Calm Calm - N/A   Scattered Clouds
1:34 AM 59.0 °F 56.8 °F 93% 29.89 in 10.0 mi SSW 3.5 mph - N/A   Clear
1:55 AM 58.6 °F 56.7 °F 93% 29.88 in 10.0 mi Calm Calm - N/A   Clear
2:15 AM 58.5 °F 56.7 °F 94% 29.87 in 7.0 mi WSW 3.5 mph - N/A   Clear
2:35 AM 58.3 °F 56.5 °F 94% 29.87 in 10.0 mi West 3.5 mph - N/A   Clear
2:55 AM 58.1 °F 56.3 °F 94% 29.86 in 10.0 mi Calm Calm - N/A   Clear
3:14 AM 57.6 °F 55.9 °F 94% 29.85 in 10.0 mi WSW 4.6 mph - N/A   Clear
3:35 AM 57.2 °F 55.6 °F 94% 29.86 in 10.0 mi WSW 4.6 mph - N/A   Clear
3:55 AM 57.2 °F 55.4 °F 94% 29.86 in 10.0 mi WSW 3.5 mph - N/A   Clear
4:14 AM 57.4 °F 55.8 °F 94% 29.86 in 10.0 mi WSW 3.5 mph - N/A   Scattered Clouds
4:35 AM 57.6 °F 55.8 °F 94% 29.86 in 10.0 mi West 3.5 mph - N/A   Scattered Clouds
4:55 AM 57.4 °F 55.8 °F 94% 29.86 in 10.0 mi West 4.6 mph - N/A   Clear
5:14 AM 57.7 °F 56.3 °F 95% 29.86 in 5.0 mi West 4.6 mph - N/A   Scattered Clouds
5:35 AM 57.9 °F 56.7 °F 96% 29.87 in 1.8 mi Calm Calm - N/A   Overcast
5:55 AM 58.1 °F 56.7 °F 95% 29.87 in 1.2 mi West 3.5 mph - N/A   Overcast
6:14 AM 58.3 °F 57.2 °F 96% 29.87 in 0.8 mi West 3.5 mph - N/A   Overcast
6:35 AM 59.0 °F 57.9 °F 96% 29.87 in 0.5 mi West 3.5 mph - N/A Fog Fog
6:54 AM 59.7 °F 58.5 °F 96% 29.87 in 0.8 mi West 3.5 mph - N/A   Overcast
7:15 AM 59.9 °F 59.0 °F 97% 29.88 in 2.5 mi Calm Calm - N/A   Overcast
7:35 AM 60.1 °F 59.0 °F 96% 29.88 in 4.0 mi Calm Calm - N/A   Mostly Cloudy
7:54 AM 60.1 °F 59.0 °F 96% 29.88 in 4.0 mi Calm Calm - N/A   Mostly Cloudy
8:15 AM 60.8 °F 59.4 °F 95% 29.88 in 7.0 mi Calm Calm - N/A   Overcast
8:35 AM 61.5 °F 60.1 °F 95% 29.88 in 10.0 mi WNW 3.5 mph - N/A   Overcast
8:54 AM 61.7 °F 59.9 °F 94% 29.88 in 10.0 mi West 5.8 mph - N/A   Overcast
9:15 AM 61.7 °F 59.9 °F 94% 29.87 in 5.0 mi West 3.5 mph - N/A   Overcast
9:35 AM 62.8 °F 60.8 °F 93% 29.87 in 5.0 mi West 4.6 mph - N/A   Overcast
9:54 AM 64.0 °F 61.3 °F 91% 29.87 in 10.0 mi West 6.9 mph - N/A   Overcast
10:15 AM 64.6 °F 61.2 °F 89% 29.87 in 7.0 mi WSW 6.9 mph - N/A   Overcast
10:34 AM 66.2 °F 62.2 °F 87% 29.87 in 7.0 mi West 8.1 mph - N/A   Overcast
10:55 AM 68.7 °F 63.1 °F 82% 29.87 in 10.0 mi WNW 6.9 mph - N/A   Mostly Cloudy
11:15 AM 70.0 °F 62.6 °F 77% 29.87 in 10.0 mi North 4.6 mph - N/A   Mostly Cloudy
11:34 AM 67.8 °F 60.6 °F 78% 29.87 in 10.0 mi NNW 9.2 mph - N/A   Mostly Cloudy
11:55 AM 67.1 °F 60.3 °F 79% 29.87 in 10.0 mi NNW 6.9 mph - N/A   Mostly Cloudy
12:15 PM 68.5 °F 60.6 °F 76% 29.88 in 10.0 mi WNW 8.1 mph - N/A   Scattered Clouds
12:34 PM 69.6 °F 60.1 °F 72% 29.88 in 10.0 mi WNW 6.9 mph - N/A   Clear
12:55 PM 70.3 °F 59.0 °F 67% 29.87 in 10.0 mi West 8.1 mph - N/A   Scattered Clouds
1:15 PM 70.7 °F 59.2 °F 67% 29.87 in 10.0 mi West 10.4 mph - N/A   Scattered Clouds
1:34 PM 72.1 °F 57.6 °F 60% 29.87 in 10.0 mi NW 5.8 mph - N/A   Clear
1:55 PM 73.2 °F 55.2 °F 53% 29.87 in 10.0 mi West 6.9 mph - N/A   Scattered Clouds
2:14 PM 69.8 °F 57.0 °F 64% 29.86 in 10.0 mi WNW 6.9 mph - N/A   Mostly Cloudy
2:35 PM 65.8 °F 60.1 °F 82% 29.87 in 5.0 mi NNW 5.8 mph - N/A Rain Light Rain
2:55 PM 69.8 °F 57.7 °F 65% 29.86 in 7.0 mi NNW 10.4 mph 17.3 mph N/A   Scattered Clouds
3:14 PM 72.0 °F 56.3 °F 58% 29.86 in 10.0 mi North 9.2 mph 16.1 mph N/A   Scattered Clouds
3:35 PM 72.1 °F 56.3 °F 57% 29.86 in 10.0 mi NNW 11.5 mph 19.6 mph N/A   Clear
3:55 PM 71.6 °F 55.9 °F 58% 29.87 in 10.0 mi NNW 10.4 mph 18.4 mph N/A   Scattered Clouds
4:14 PM 71.4 °F 56.3 °F 59% 29.87 in 10.0 mi NNW 15.0 mph 21.9 mph N/A   Scattered Clouds
4:35 PM 72.3 °F 57.0 °F 59% 29.87 in 10.0 mi NNW 15.0 mph 20.7 mph N/A   Scattered Clouds
4:55 PM 71.4 °F 57.9 °F 62% 29.87 in 10.0 mi NNW 13.8 mph 19.6 mph N/A   Mostly Cloudy
5:14 PM 69.4 °F 59.0 °F 69% 29.87 in 10.0 mi NNW 12.7 mph 20.7 mph N/A   Mostly Cloudy
5:35 PM 70.9 °F 57.4 °F 62% 29.87 in 10.0 mi NNW 11.5 mph 17.3 mph N/A   Mostly Cloudy
5:54 PM 69.1 °F 56.5 °F 64% 29.87 in 10.0 mi NNW 6.9 mph - N/A   Scattered Clouds
6:15 PM 67.8 °F 57.4 °F 69% 29.87 in 10.0 mi North 9.2 mph - N/A   Scattered Clouds
6:35 PM 67.5 °F 57.7 °F 71% 29.87 in 10.0 mi North 4.6 mph - N/A   Clear
6:55 PM 70.0 °F 56.8 °F 63% 29.87 in 10.0 mi WNW 5.8 mph - N/A   Clear
7:15 PM 70.9 °F 54.7 °F 56% 29.86 in 10.0 mi West 10.4 mph 17.3 mph N/A   Clear
7:35 PM 70.7 °F 54.3 °F 56% 29.87 in 10.0 mi West 6.9 mph - N/A   Clear
7:55 PM 69.4 °F 53.6 °F 57% 29.87 in 10.0 mi West 8.1 mph - N/A   Clear
8:14 PM 68.2 °F 53.6 °F 60% 29.87 in 10.0 mi West 4.6 mph - N/A   Clear
8:35 PM 67.3 °F 53.8 °F 62% 29.87 in 10.0 mi West 3.5 mph - N/A   Scattered Clouds
8:55 PM 65.7 °F 54.1 °F 66% 29.87 in 10.0 mi West 3.5 mph - N/A   Mostly Cloudy
9:14 PM 64.4 °F 54.7 °F 71% 29.87 in 10.0 mi WSW 5.8 mph - N/A   Clear
9:35 PM 63.0 °F 54.9 °F 75% 29.87 in 10.0 mi WSW 4.6 mph - N/A   Clear
9:55 PM 62.6 °F 55.4 °F 77% 29.87 in 10.0 mi WSW 4.6 mph - N/A   Clear
10:14 PM 62.4 °F 55.4 °F 78% 29.88 in 10.0 mi Calm Calm - N/A   Clear
10:35 PM 61.9 °F 55.6 °F 80% 29.88 in 10.0 mi NNW 5.8 mph - N/A   Clear
10:54 PM 62.1 °F 55.6 °F 79% 29.89 in 10.0 mi WSW 5.8 mph - N/A   Clear
11:15 PM 60.8 °F 55.4 °F 82% 29.89 in 10.0 mi West 3.5 mph - N/A   Clear
11:35 PM 59.9 °F 55.2 °F 84% 29.89 in 10.0 mi West 3.5 mph - N/A   Clear
11:54 PM 57.7 °F 54.5 °F 89% 29.89 in 10.0 mi Calm Calm - N/A   Clear